This demonstration page uses our WeatherBlox Daily Observations layout. Learn more.

40.92945, -100.16068

Hourly Observations for March 25, 2015

Temp ( °F °C ) Dew Point ( °F °C ) Humidity (%) Winds ( mph kmh ) Pressure ( in mb ) Visibility ( mi km ) Precip ( " mm )
12:15 am 00:15 Mostly Cloudy 45 7 33 0.5 64 64 SW 5 7 29.91 1013 10 16.0934 N/A
12:35 am 00:35 Mostly Cloudy 45 7.2 31 -0.3 59 59 Calm 29.91 1013 10 16.0934 N/A
12:55 am 00:55 Cloudy 44 6.6 33 0.4 65 65 Calm 29.91 1013 10 16.0934 N/A
1:15 am 01:15 Cloudy 48 9.1 29 -1.9 46 46 W 6 9 29.94 1014 10 16.0934 N/A
1:35 am 01:35 Mostly Cloudy 49 9.6 28 -2.5 43 43 W 9 15 29.88 1012 10 16.0934 N/A
1:55 am 01:55 Mostly Cloudy 54 12 26 -3.6 34 34 WNW 13 20 29.85 1011 10 16.0934 N/A
2:15 am 02:15 Cloudy 55 12.9 28 -2.1 36 36 WNW 18 30 29.85 1011 10 16.0934 N/A
2:35 am 02:35 Partly Cloudy 55 12.8 28 -2.1 36 36 NW 17 28 29.83 1010 10 16.0934 N/A
2:55 am 02:55 Partly Cloudy 54 12.3 28 -2.1 37 37 NW 14 22 29.85 1011 10 16.0934 N/A
3:15 am 03:15 Mostly Cloudy 53 11.6 28 -2 39 39 NW 12 19 29.85 1011 10 16.0934 N/A
3:35 am 03:35 Partly Cloudy 52 11 30 -1.2 43 43 W 9 15 29.88 1012 10 16.0934 N/A
3:55 am 03:55 Cloudy 53 11.5 31 -0.6 43 43 W 9 15 29.91 1013 10 16.0934 N/A
4:15 am 04:15 Cloudy 51 10.6 32 -0.2 47 47 W 8 13 29.88 1012 10 16.0934 N/A
4:35 am 04:35 Mostly Cloudy 49 9.6 32 0 52 52 W 8 13 29.88 1012 10 16.0934 N/A
4:55 am 04:55 Cloudy 50 10 32 0 50 50 W 8 13 29.88 1012 10 16.0934 N/A
5:15 am 05:15 Cloudy 51 10.4 32 0 49 49 WNW 12 19 29.91 1013 10 16.0934 N/A
5:35 am 05:35 Cloudy 52 11 31 -0.5 45 45 NW 10 17 29.91 1013 10 16.0934 N/A
5:55 am 05:55 Cloudy 50 10 31 -0.5 48 48 NW 9 15 29.91 1013 10 16.0934 N/A
6:15 am 06:15 Cloudy 49 9.5 31 -0.7 49 49 NNW 9 15 29.94 1014 10 16.0934 N/A
6:35 am 06:35 Cloudy 49 9.6 31 -0.8 49 49 NNW 8 13 29.94 1014 10 16.0934 N/A
6:55 am 06:55 Cloudy 49 9.3 32 -0.1 52 52 N 15 24 30 1016 10 16.0934 N/A
7:15 am 07:15 Cloudy 47 8.6 34 0.9 59 59 NNE 15 24 30.03 1017 10 16.0934 N/A
9:35 am 09:35 Cloudy with Light Rain 40 4.2 33 0.5 77 77 N 22 35 30.09 1019 10 16.0934 N/A
9:55 am 09:55 Cloudy with Light Rain 39 3.9 32 -0.1 75 75 N 21 33 30.15 1021 10 16.0934 N/A
10:15 am 10:15 Cloudy 39 3.8 32 -0.1 76 76 NNE 20 31 30.15 1021 10 16.0934 N/A
10:35 am 10:35 Cloudy 39 4 31 -0.3 74 74 N 18 30 30.18 1022 10 16.0934 N/A
10:55 am 10:55 Cloudy 39 4 30 -1.1 70 70 N 21 33 30.18 1022 10 16.0934 N/A
11:15 am 11:15 Cloudy 40 4.3 30 -1.2 68 68 N 22 35 30.18 1022 10 16.0934 N/A
11:35 am 11:35 Cloudy 40 4.2 29 -1.6 66 66 N 20 31 30.21 1023 10 16.0934 N/A
11:55 am 11:55 Cloudy 40 4.5 29 -1.7 64 64 N 21 33 30.18 1022 10 16.0934 N/A
12:15 pm 12:15 Cloudy 40 4.4 28 -2 63 63 N 16 26 30.24 1024 10 16.0934 N/A
12:35 pm 12:35 Cloudy 40 4.7 28 -2 62 62 N 18 30 30.24 1024 10 16.0934 N/A
12:55 pm 12:55 Cloudy 41 5.1 28 -2.1 60 60 N 17 28 30.24 1024 10 16.0934 N/A
1:15 pm 13:15 Cloudy 42 5.3 28 -2.1 59 59 N 16 26 30.24 1024 10 16.0934 N/A
1:35 pm 13:35 Cloudy 42 5.5 28 -2.5 57 57 N 16 26 30.21 1023 10 16.0934 N/A
1:55 pm 13:55 Cloudy 43 5.9 27 -2.8 54 54 N 16 26 30.21 1023 10 16.0934 N/A
2:15 pm 14:15 Cloudy 43 6.2 27 -3 52 52 N 15 24 30.21 1023 10 16.0934 N/A
2:35 pm 14:35 Cloudy 44 6.8 27 -2.9 50 50 N 14 22 30.21 1023 10 16.0934 N/A
2:55 pm 14:55 Cloudy 45 7.4 26 -3.4 47 47 N 16 26 30.21 1023 10 16.0934 N/A
3:15 pm 15:15 Mostly Cloudy 45 7.4 26 -3.5 46 46 N 17 28 30.21 1023 10 16.0934 N/A
3:35 pm 15:35 Mostly Cloudy 45 7.2 26 -3.6 47 47 N 16 26 30.21 1023 10 16.0934 N/A
3:55 pm 15:55 Partly Cloudy 45 7.3 25 -4 45 45 N 18 30 30.21 1023 10 16.0934 N/A
4:15 pm 16:15 Partly Cloudy 46 7.6 24 -4.5 42 42 NNW 17 28 30.21 1023 10 16.0934 N/A
4:35 pm 16:35 Sunny 47 8.3 24 -4.6 40 40 NNW 22 35 30.21 1023 10 16.0934 N/A
4:55 pm 16:55 Sunny 47 8.2 23 -4.8 40 40 N 17 28 30.21 1023 10 16.0934 N/A
5:15 pm 17:15 Sunny 46 8 22 -5.3 39 39 N 20 31 30.21 1023 10 16.0934 N/A
5:35 pm 17:35 Sunny 47 8.5 22 -5.3 38 38 N 17 28 30.18 1022 10 16.0934 N/A
5:55 pm 17:55 Sunny 47 8.5 22 -5.5 37 37 N 18 30 30.18 1022 10 16.0934 N/A
6:15 pm 18:15 Sunny 47 8.4 22 -5.5 37 37 N 18 30 30.21 1023 10 16.0934 N/A
6:35 pm 18:35 Sunny 46 8 22 -5.5 38 38 N 15 24 30.21 1023 10 16.0934 N/A
6:55 pm 18:55 Sunny 46 7.8 22 -5.5 39 39 N 18 30 30.21 1023 10 16.0934 N/A
7:15 pm 19:15 Sunny 46 7.7 22 -5.4 39 39 N 14 22 30.21 1023 10 16.0934 N/A
7:35 pm 19:35 Sunny 46 7.6 22 -5.4 40 40 N 12 19 30.21 1023 10 16.0934 N/A
7:55 pm 19:55 Sunny 44 6.4 22 -5.5 43 43 N 9 15 30.21 1023 10 16.0934 N/A
8:15 pm 20:15 Clear 40 4.5 22 -5.7 48 48 N 8 13 30.24 1024 10 16.0934 N/A
8:35 pm 20:35 Clear 38 3.2 21 -5.9 52 52 N 9 15 30.27 1025 7 11.26538 N/A
8:55 pm 20:55 Clear 36 2 21 -6.1 55 55 N 10 17 30.3 1026 7 11.26538 N/A
9:15 pm 21:15 Clear 35 1.5 21 -6 58 58 N 8 13 30.3 1026 10 16.0934 N/A
9:35 pm 21:35 Clear 32 0.2 20 -6.8 60 60 N 7 11 30.33 1027 10 16.0934 N/A
9:55 pm 21:55 Clear 32 0.1 21 -6.3 62 62 N 7 11 30.33 1027 10 16.0934 N/A
10:15 pm 22:15 Clear 31 -0.7 20 -6.8 64 64 N 7 11 30.36 1028 7 11.26538 N/A
10:35 pm 22:35 Clear 29 -1.8 19 -7 68 68 N 6 9 30.36 1028 10 16.0934 N/A
10:55 pm 22:55 Clear 29 -1.7 20 -6.6 70 70 N 6 9 30.36 1028 10 16.0934 N/A
11:15 pm 23:15 Clear 29 -1.4 20 -6.7 68 68 N 7 11 30.36 1028 10 16.0934 N/A
11:35 pm 23:35 Clear 24 -4.2 17 -8.3 73 73 NNW 3 6 30.39 1029 10 16.0934 N/A
11:55 pm 23:55 Clear 25 -4 18 -7.8 75 75 NNE 5 7 30.39 1029 10 16.0934 N/A

Powered by AerisWeather